LEMUR-2-GUSTAVO (43885 NORAD) Tracking and Keplerian Element Data

This shows tracking and keplerian element data for the satellite.

Feedback or suggestion? Click here.




ElementValue
Catalog43885
NameLEMUR-2-GUSTAVO
Epoch Orbit370
Epoch Day20.95356427
Epoch Year2019
RAAN291.0742
Inclination97.7289
Eccentricity0.0012126
Argument of Perigee154.3086
Mean Anonmoly205.874
Mean Motion14.96464705
Decay Rate8.14E-06
L11 43885U 18111K 19020.95356427 .00000814 00000-0 76742-4 0 9996
L22 43885 97.7289 291.0742 0012126 154.3086 205.8740 14.96464705 3708

Live tracking and technical data element details for LEMUR-2-GUSTAVO (NORAD 43885). LEMUR-2-GUSTAVO can be tracked NOW for your location showing map with azimuth and elevation plus other details from your city location.

Track the satellite on the map from your city or location and see movement details for azimuth, elevation, latitude, longitude, range, height, and movement on the map or in text.







IsCatalogInMostPopularTable: catalog: 43885, numindb: 18
Update: records affected: 1



GetName: 43885 LEMUR-2-GUSTAVO

Hit Count: updated at: Wed, 23 Jan 2019 03:00:27 GMT